Miscellaneous Local Product
Issued by NWS Hastings, NE

Home | Current Version | Previous Version | Graphics & Text | Print | Product List | Glossary On
Versions: 1 2 3 4 5 6 7 8 9 10 11 12 13 14 15 16 17 18 19 20 21 22 23 24 25 26 27 28 29 30 31 32 33 34 35 36 37 38 39 40 41 42 43 44 45 46 47 48 49 50
138
AXUS43 KGID 281202
MISGRI

GID CWA HOURLY WEATHER ROUNDUP
NATIONAL WEATHER SERVICE HASTINGS NE
600 AM CST TUE FEB 28 2017

NOTE: "FAIR" INDICATES FEW OR NO CLOUDS BELOW 12,000 FEET WITH NO
SIGNIFICANT WEATHER AND/OR OBSTRUCTIONS TO VISIBILITY.

...SOUTH CENTRAL NEBRASKA...

CITY           SKY/WX    TMP DP  RH WIND       PRES   REMARKS
GRAND ISLAND   CLEAR     32  32 100 NW10      29.63R FOG     WCI  24
HASTINGS       CLEAR     34  32  92 NW17      29.62F WCI  23
KEARNEY        CLOUDY    32  27  80 NW8       29.65S WCI  25
ORD            CLOUDY    30  27  88 NW13      29.64S WCI  20
YORK           CLEAR     36  36 100 NW14      29.60R WCI  27
AURORA         CLEAR     33  33  98 NW8       29.61S FOG     WCI  27
LEXINGTON      CLOUDY    31  27  87 NW14      29.67R WCI  20
HOLDREGE       CLOUDY    32  28  86 NW12      29.63S WCI  23
HEBRON         CLOUDY    38  29  71 SW6       29.64R WCI  33

...NEBRASKA PANHANDLE...

CITY           SKY/WX    TMP DP  RH WIND       PRES   REMARKS
CHADRON        CLOUDY    13  10  88 SW7       29.69S WCI   3
ALLIANCE       CLOUDY    25  15  66 NW17      29.67R WCI  12
SCOTTSBLUFF    CLOUDY    28  14  55 W23G30    29.69R WCI  14
SIDNEY         CLEAR     23  14  68 NW9       29.71R WCI  13

...WESTERN AND NORTH CENTRAL NEBRASKA...

CITY           SKY/WX    TMP DP  RH WIND       PRES   REMARKS
VALENTINE      CLOUDY    23  19  85 NW6       29.71S WCI  16
AINSWORTH      CLEAR     25  24  94 NW6       29.70R WCI  18
ONEILL         CLOUDY    30  28  94 NW10      29.69R WCI  21
BROKEN BOW     CLOUDY    32  27  81 N22       29.65S WCI  19
IMPERIAL       CLOUDY    26  22  84 N12       29.69F WCI  16
NORTH PLATTE   CLOUDY    26  21  81 NW10      29.69S WCI  16
MCCOOK         CLOUDY    27  22  81 NW9       29.69R WCI  18

...EASTERN NEBRASKA...

CITY           SKY/WX    TMP DP  RH WIND       PRES   REMARKS
NORFOLK        MOCLDY    34  29  82 NW7       29.61R WCI  28
SO SIOUX CITY  CLOUDY    37  32  82 N8        29.61S WCI  31
TEKAMAH        CLOUDY    36  32  85 N8        29.59R WCI  30
COLUMBUS       CLOUDY    34  28  80 NW8       29.61R WCI  27
ALBION         CLOUDY    37  33  87 NW7       29.62S WCI  31
OMAHA EPPLEY   CLOUDY    42  37  82 SE5       29.58R
OFFUTT AFB     CLOUDY    46  44  93 S6        29.58R
MILLARD        FOG       42  41  96 CALM      29.58R VSB 1/2
LINCOLN        CLOUDY    43  35  73 SW5       29.61R
NEBRASKA CITY  CLOUDY    50  42  73 SW12      29.60R
BEATRICE       CLOUDY    42  37  80 W9        29.63R
FALLS CITY     PTCLDY    57  53  86 S15       29.61S

...NORTHERN KANSAS...

CITY           SKY/WX    TMP DP  RH WIND       PRES   REMARKS
GOODLAND       CLEAR     25  21  85 NW17      29.68F WCI  12
HILL CITY      CLOUDY    35  27  72 NW12      29.66R WCI  27
NORTON         SUNNY     34  25  69 W16       29.64F WCI  23
PHILLIPSBURG   CLEAR     36  27  69 NW16      29.62F WCI  26
SMITH CENTER   CLEAR     34  27  75 NW3       29.63S
HAYS             N/A     37  23  56 W3        29.68R
RUSSELL        CLOUDY    38  21  50 W5        29.65R WCI  34
CONCORDIA      CLOUDY    45  32  60 SW8       29.63R
SALINA         PTCLDY    49  46  90 S10       29.66R FOG
TOPEKA         CLOUDY    62  59  90 S12       29.66R



USA.gov is the U.S. government's official web portal to all federal, state and local government web resources and services.